Volver al catálogo

STARLINK-36066

ActivoComunicacionesVLEO
NORAD 66592·PAYLOAD·🇺🇸 United States

Lanzado Nov 22, 2025 desde Cape Canaveral Space Force Station

Loading…

Próximos Pases (próximas 24 horas)

TLE

ActualizadoSource: CelesTrak SupGP

Época: Sep 15, 2026, 04:04 UTC

1 66592C 25270E   26258.16993056 -.00031870  00000+0 -11540-2 0  2587
2 66592  43.0031  66.3289 0001551 270.4955  21.5457 15.27602124    14

Sigue STARLINK-36066 en tiempo real con AllMySat

Download on the App Store